TimeCST,TemperatureF,Dew PointF,Humidity,Sea Level PressureIn,VisibilityMPH,Wind Direction,Wind SpeedMPH,Gust SpeedMPH,PrecipitationIn,Events,Conditions,WindDirDegrees,DateUTC
12:15 AM,25.7,14.0,61,30.15,10.0,NW,18.4,29.9,N/A,,Clear,320,2013-03-05 06:15:00
12:35 AM,25.2,14.0,63,30.15,10.0,NNW,19.6,24.2,N/A,,Clear,330,2013-03-05 06:35:00
12:55 AM,24.8,14.7,66,30.15,10.0,NW,20.7,24.2,N/A,,Mostly Cloudy,320,2013-03-05 06:55:00
1:15 AM,25.5,16.0,67,30.15,10.0,NW,16.1,-,N/A,,Overcast,320,2013-03-05 07:15:00
1:35 AM,25.7,16.5,68,30.16,10.0,NW,17.3,-,N/A,,Overcast,320,2013-03-05 07:35:00
1:55 AM,25.7,17.1,70,30.16,10.0,NW,18.4,-,N/A,,Overcast,310,2013-03-05 07:55:00
2:15 AM,26.1,16.7,68,30.16,10.0,WNW,18.4,24.2,N/A,,Mostly Cloudy,300,2013-03-05 08:15:00
2:35 AM,26.2,16.9,68,30.17,10.0,WNW,18.4,24.2,N/A,,Mostly Cloudy,300,2013-03-05 08:35:00
2:55 AM,26.2,17.6,70,30.17,10.0,NW,18.4,25.3,N/A,,Overcast,320,2013-03-05 08:55:00
3:15 AM,25.5,16.2,68,30.17,10.0,NW,25.3,29.9,N/A,,Scattered Clouds,320,2013-03-05 09:15:00
3:35 AM,25.2,15.3,66,30.17,10.0,NNW,26.5,33.4,N/A,,Clear,330,2013-03-05 09:35:00
3:55 AM,25.0,14.7,65,30.17,10.0,NNW,24.2,33.4,N/A,,Scattered Clouds,330,2013-03-05 09:55:00
4:15 AM,25.2,14.9,65,30.17,10.0,NNW,29.9,35.7,N/A,,Scattered Clouds,330,2013-03-05 10:15:00
4:35 AM,25.2,14.9,65,30.18,10.0,NW,33.4,41.4,N/A,,Clear,320,2013-03-05 10:35:00
4:55 AM,24.8,14.0,64,30.20,10.0,NNW,26.5,36.8,N/A,,Clear,330,2013-03-05 10:55:00
5:15 AM,23.9,13.8,65,30.20,10.0,NNW,33.4,40.3,N/A,,Clear,330,2013-03-05 11:15:00
5:35 AM,23.5,13.5,65,30.21,10.0,NNW,33.4,41.4,N/A,,Clear,330,2013-03-05 11:35:00
5:55 AM,23.4,13.6,66,30.22,10.0,NNW,27.6,38.0,N/A,,Clear,330,2013-03-05 11:55:00
6:15 AM,23.0,13.5,67,30.23,10.0,NW,27.6,36.8,N/A,,Clear,320,2013-03-05 12:15:00
6:35 AM,22.8,13.3,67,30.24,10.0,NW,26.5,32.2,N/A,,Clear,320,2013-03-05 12:35:00
7:15 AM,22.1,13.3,69,30.25,10.0,NNW,21.9,26.5,N/A,,Clear,330,2013-03-05 13:15:00
7:35 AM,22.1,13.3,69,30.26,10.0,NW,23.0,-,N/A,,Clear,320,2013-03-05 13:35:00
7:55 AM,22.6,14.0,69,30.26,10.0,NNW,23.0,27.6,N/A,,Clear,330,2013-03-05 13:55:00
8:15 AM,23.2,13.8,67,30.27,10.0,NW,23.0,31.1,N/A,,Clear,320,2013-03-05 14:15:00
8:35 AM,23.9,13.6,65,30.27,10.0,NNW,28.8,33.4,N/A,,Clear,330,2013-03-05 14:35:00
8:55 AM,24.4,13.5,63,30.28,10.0,NNW,24.2,33.4,N/A,,Clear,330,2013-03-05 14:55:00
9:15 AM,24.8,13.8,63,30.29,10.0,NW,25.3,29.9,N/A,,Clear,320,2013-03-05 15:15:00
9:35 AM,25.7,14.0,61,30.29,10.0,NNW,32.2,36.8,N/A,,Clear,340,2013-03-05 15:35:00
9:55 AM,26.6,14.5,60,30.30,10.0,NNW,27.6,34.5,N/A,,Clear,330,2013-03-05 15:55:00
10:15 AM,27.3,15.1,60,30.30,10.0,NNW,26.5,32.2,N/A,,Clear,330,2013-03-05 16:15:00
10:35 AM,28.0,15.3,59,30.30,10.0,NNW,28.8,33.4,N/A,,Clear,330,2013-03-05 16:35:00
10:55 AM,28.8,15.4,58,30.30,10.0,NNW,21.9,-,N/A,,Clear,330,2013-03-05 16:55:00
11:15 AM,29.8,16.0,56,30.30,10.0,NW,23.0,-,N/A,,Clear,320,2013-03-05 17:15:00
11:35 AM,30.7,16.2,55,30.29,10.0,NNW,18.4,28.8,N/A,,Clear,340,2013-03-05 17:35:00
11:55 AM,32.0,16.7,53,30.30,10.0,NNW,19.6,-,N/A,,Clear,340,2013-03-05 17:55:00
12:15 PM,32.7,18.1,55,30.31,10.0,NW,19.6,24.2,N/A,,Clear,320,2013-03-05 18:15:00
12:35 PM,33.3,17.2,52,30.31,10.0,NW,20.7,26.5,N/A,,Clear,320,2013-03-05 18:35:00
12:55 PM,33.8,17.4,51,30.31,10.0,NW,19.6,25.3,N/A,,Clear,320,2013-03-05 18:55:00
1:15 PM,34.7,17.4,49,30.31,10.0,NW,19.6,27.6,N/A,,Clear,320,2013-03-05 19:15:00
1:35 PM,35.1,18.7,51,30.30,10.0,NW,20.7,24.2,N/A,,Clear,320,2013-03-05 19:35:00
1:55 PM,35.6,18.0,49,30.30,10.0,NNW,18.4,21.9,N/A,,Clear,330,2013-03-05 19:55:00
2:15 PM,35.8,17.8,48,30.30,10.0,NNW,19.6,-,N/A,,Clear,340,2013-03-05 20:15:00
2:35 PM,36.3,18.1,48,30.29,10.0,NW,16.1,-,N/A,,Clear,320,2013-03-05 20:35:00
2:55 PM,36.5,18.5,48,30.29,10.0,NNW,15.0,-,N/A,,Clear,340,2013-03-05 20:55:00
3:15 PM,36.5,17.8,47,30.28,10.0,NNW,15.0,-,N/A,,Clear,340,2013-03-05 21:15:00
3:35 PM,36.9,18.3,47,30.28,10.0,NNW,13.8,-,N/A,,Clear,340,2013-03-05 21:35:00
3:55 PM,37.2,17.8,45,30.28,10.0,NNW,13.8,-,N/A,,Clear,340,2013-03-05 21:55:00
4:15 PM,37.4,19.2,48,30.28,10.0,NNW,12.7,18.4,N/A,,Clear,330,2013-03-05 22:15:00
4:35 PM,37.4,19.2,48,30.28,10.0,NNW,10.4,-,N/A,,Clear,340,2013-03-05 22:35:00
4:55 PM,37.0,18.5,47,30.28,10.0,North,12.7,-,N/A,,Clear,350,2013-03-05 22:55:00
5:15 PM,36.5,18.0,47,30.28,10.0,North,10.4,-,N/A,,Clear,350,2013-03-05 23:15:00
5:35 PM,36.0,18.9,50,30.28,10.0,North,11.5,-,N/A,,Clear,360,2013-03-05 23:35:00
5:55 PM,35.1,19.0,52,30.29,10.0,NNE,8.1,-,N/A,,Clear,20,2013-03-05 23:55:00
6:15 PM,33.1,20.1,59,30.30,10.0,North,8.1,-,N/A,,Clear,10,2013-03-06 00:15:00
6:35 PM,31.5,20.7,64,30.31,10.0,North,8.1,-,N/A,,Clear,360,2013-03-06 00:35:00
6:55 PM,29.7,20.5,69,30.31,10.0,North,8.1,-,N/A,,Clear,360,2013-03-06 00:55:00
7:15 PM,28.2,20.1,72,30.32,10.0,NNE,5.8,-,N/A,,Clear,20,2013-03-06 01:15:00
7:35 PM,28.8,18.5,66,30.32,10.0,NNE,6.9,-,N/A,,Clear,30,2013-03-06 01:35:00
7:55 PM,27.5,18.3,68,30.32,10.0,NNE,5.8,-,N/A,,Clear,30,2013-03-06 01:55:00
8:15 PM,27.1,18.1,69,30.31,10.0,NNE,6.9,-,N/A,,Clear,30,2013-03-06 02:15:00
8:35 PM,25.7,18.1,73,30.32,10.0,NE,5.8,-,N/A,,Clear,40,2013-03-06 02:35:00
8:55 PM,25.2,18.1,75,30.33,10.0,NE,6.9,-,N/A,,Clear,50,2013-03-06 02:55:00
9:15 PM,25.5,17.1,70,30.33,10.0,ENE,6.9,-,N/A,,Clear,60,2013-03-06 03:15:00
9:35 PM,23.7,16.7,75,30.33,10.0,ENE,8.1,-,N/A,,Clear,60,2013-03-06 03:35:00
9:55 PM,23.4,16.9,76,30.34,10.0,ENE,4.6,-,N/A,,Clear,60,2013-03-06 03:55:00
10:15 PM,23.4,16.7,76,30.34,10.0,ENE,4.6,-,N/A,,Clear,60,2013-03-06 04:15:00
10:35 PM,22.8,16.2,76,30.34,10.0,ENE,3.5,-,N/A,,Clear,70,2013-03-06 04:35:00
10:55 PM,22.3,16.2,77,30.34,10.0,Calm,Calm,-,N/A,,Clear,0,2013-03-06 04:55:00
11:15 PM,22.6,16.7,78,30.34,10.0,Calm,Calm,-,N/A,,Clear,0,2013-03-06 05:15:00
11:35 PM,20.8,15.8,81,30.34,10.0,Calm,Calm,-,N/A,,Clear,0,2013-03-06 05:35:00
11:55 PM,21.2,15.3,78,30.33,10.0,East,4.6,-,N/A,,Clear,80,2013-03-06 05:55:00